Time,TemperatureF,DewpointF,PressureIn,WindDirection,WindDirectionDegrees,WindSpeedMPH,WindSpeedGustMPH,Humidity,HourlyPrecipIn,Conditions,Clouds,dailyrainin,SolarRadiationWatts/m^2,SoftwareType,DateUTC
2013-02-21 00:11:00,21.0,19.0,-100.00,WSW,254,1.0,4.0,93,0.00,,,0.01,0.000000,,2013-02-21 07:11:00,
2013-02-21 00:21:00,21.0,19.0,-100.00,WSW,254,1.0,4.0,93,0.00,,,0.01,0.000000,,2013-02-21 07:21:00,
2013-02-21 00:31:00,21.0,19.0,-100.00,WSW,254,1.0,4.0,93,0.00,,,0.01,0.000000,,2013-02-21 07:31:00,
2013-02-21 00:41:00,21.0,19.0,-100.00,WSW,254,1.0,4.0,93,0.00,,,0.01,0.000000,,2013-02-21 07:41:00,
2013-02-21 01:11:00,21.0,19.0,-100.00,SSW,213,1.0,3.0,93,0.00,,,0.01,0.000000,,2013-02-21 08:11:00,
2013-02-21 01:21:00,21.0,19.0,-100.00,SSW,213,1.0,3.0,93,0.00,,,0.01,0.000000,,2013-02-21 08:21:00,
2013-02-21 01:31:00,21.0,19.0,-100.00,SSW,213,1.0,3.0,93,0.00,,,0.01,0.000000,,2013-02-21 08:31:00,
2013-02-21 01:41:00,21.0,19.0,-100.00,SSW,213,1.0,3.0,93,0.00,,,0.01,0.000000,,2013-02-21 08:41:00,
2013-02-21 02:11:00,20.0,18.0,-100.00,SSW,194,0.0,3.0,93,0.00,,,0.01,0.000000,,2013-02-21 09:11:00,
2013-02-21 02:22:00,20.0,18.0,-100.00,SSW,194,0.0,3.0,93,0.00,,,0.01,0.000000,,2013-02-21 09:22:00,
2013-02-21 02:31:00,20.0,18.0,-100.00,SSW,194,0.0,3.0,93,0.00,,,0.01,0.000000,,2013-02-21 09:31:00,
2013-02-21 02:41:00,20.0,18.0,-100.00,SSW,194,0.0,3.0,93,0.00,,,0.01,0.000000,,2013-02-21 09:41:00,
2013-02-21 03:11:00,19.0,17.0,-100.00,South,169,0.0,2.0,92,0.00,,,0.01,0.000000,,2013-02-21 10:11:00,
2013-02-21 03:21:00,19.0,17.0,-100.00,South,169,0.0,2.0,92,0.00,,,0.01,0.000000,,2013-02-21 10:21:00,
2013-02-21 03:31:00,19.0,17.0,-100.00,South,169,0.0,2.0,92,0.00,,,0.01,0.000000,,2013-02-21 10:31:00,
2013-02-21 03:41:00,19.0,17.0,-100.00,South,169,0.0,2.0,92,0.00,,,0.01,0.000000,,2013-02-21 10:41:00,
2013-02-21 04:01:00,16.0,14.0,-100.00,WNW,300,0.0,2.0,91,0.00,,,0.01,0.000000,,2013-02-21 11:01:00,
2013-02-21 04:11:00,16.0,14.0,-100.00,WNW,300,0.0,2.0,91,0.00,,,0.01,0.000000,,2013-02-21 11:11:00,
2013-02-21 04:21:00,16.0,14.0,-100.00,WNW,300,0.0,2.0,91,0.00,,,0.01,0.000000,,2013-02-21 11:21:00,
2013-02-21 04:31:00,16.0,14.0,-100.00,WNW,300,0.0,2.0,91,0.00,,,0.01,0.000000,,2013-02-21 11:31:00,
2013-02-21 04:41:00,16.0,14.0,-100.00,WNW,300,0.0,2.0,91,0.00,,,0.01,0.000000,,2013-02-21 11:41:00,
2013-02-21 05:11:00,12.0,9.0,-100.00,NNW,343,0.0,0.0,88,0.00,,,0.01,0.000000,,2013-02-21 12:11:00,
2013-02-21 05:21:00,12.0,9.0,-100.00,NNW,343,0.0,0.0,88,0.00,,,0.01,0.000000,,2013-02-21 12:21:00,
2013-02-21 05:32:00,12.0,9.0,-100.00,NNW,343,0.0,0.0,88,0.00,,,0.01,0.000000,,2013-02-21 12:32:00,
2013-02-21 05:42:00,12.0,9.0,-100.00,NNW,343,0.0,0.0,88,0.00,,,0.01,0.000000,,2013-02-21 12:42:00,
2013-02-21 06:12:00,10.0,7.0,-100.00,North,360,0.0,2.0,89,0.00,,,0.01,0.000000,,2013-02-21 13:12:00,
2013-02-21 06:22:00,10.0,7.0,-100.00,North,360,0.0,2.0,89,0.00,,,0.01,0.000000,,2013-02-21 13:22:00,
2013-02-21 06:31:00,10.0,7.0,-100.00,North,360,0.0,2.0,89,0.00,,,0.01,0.000000,,2013-02-21 13:31:00,
2013-02-21 06:41:00,10.0,7.0,-100.00,North,360,0.0,2.0,89,0.00,,,0.01,0.000000,,2013-02-21 13:41:00,
2013-02-21 07:11:00,10.0,7.0,-100.00,NNW,340,0.0,2.0,89,0.00,,,0.01,0.000000,,2013-02-21 14:11:00,
2013-02-21 07:21:00,10.0,7.0,-100.00,NNW,340,0.0,2.0,89,0.00,,,0.01,0.000000,,2013-02-21 14:21:00,
2013-02-21 07:31:00,10.0,7.0,-100.00,NNW,340,0.0,2.0,89,0.00,,,0.01,0.000000,,2013-02-21 14:31:00,
2013-02-21 07:41:00,10.0,7.0,-100.00,NNW,340,0.0,2.0,89,0.00,,,0.01,0.000000,,2013-02-21 14:41:00,
2013-02-21 08:12:00,12.0,10.0,-100.00,North,357,0.0,2.0,91,0.00,,,0.01,2.000000,,2013-02-21 15:12:00,
2013-02-21 08:21:00,12.0,10.0,-100.00,North,357,0.0,2.0,91,0.00,,,0.01,2.000000,,2013-02-21 15:21:00,
2013-02-21 08:31:00,12.0,10.0,-100.00,North,357,0.0,2.0,91,0.00,,,0.01,2.000000,,2013-02-21 15:31:00,
2013-02-21 08:41:00,12.0,10.0,-100.00,North,357,0.0,2.0,91,0.00,,,0.01,2.000000,,2013-02-21 15:41:00,
2013-02-21 09:12:00,16.0,14.0,-100.00,NNW,330,0.0,2.0,91,0.00,,,0.01,21.000000,,2013-02-21 16:12:00,
2013-02-21 09:21:00,16.0,14.0,-100.00,NNW,330,0.0,2.0,91,0.00,,,0.01,21.000000,,2013-02-21 16:21:00,
2013-02-21 09:31:00,16.0,14.0,-100.00,NNW,330,0.0,2.0,91,0.00,,,0.01,21.000000,,2013-02-21 16:31:00,
2013-02-21 09:42:00,16.0,14.0,-100.00,NNW,330,0.0,2.0,91,0.00,,,0.01,21.000000,,2013-02-21 16:42:00,
2013-02-21 10:11:00,20.0,16.0,-100.00,WNW,300,1.0,3.0,85,0.00,,,0.01,57.000000,,2013-02-21 17:11:00,
2013-02-21 10:21:00,20.0,16.0,-100.00,WNW,300,1.0,3.0,85,0.00,,,0.01,57.000000,,2013-02-21 17:21:00,
2013-02-21 10:32:00,20.0,16.0,-100.00,WNW,300,1.0,3.0,85,0.00,,,0.01,57.000000,,2013-02-21 17:32:00,
2013-02-21 10:41:00,20.0,16.0,-100.00,WNW,300,1.0,3.0,85,0.00,,,0.01,57.000000,,2013-02-21 17:41:00,
2013-02-21 11:11:00,22.0,17.0,-100.00,SW,221,2.0,6.0,80,0.00,,,0.00,92.000000,,2013-02-21 18:11:00,
2013-02-21 11:22:00,22.0,17.0,-100.00,SW,221,2.0,6.0,80,0.00,,,0.00,92.000000,,2013-02-21 18:22:00,
2013-02-21 11:31:00,22.0,17.0,-100.00,SW,221,2.0,6.0,80,0.00,,,0.00,92.000000,,2013-02-21 18:31:00,
2013-02-21 11:42:00,22.0,17.0,-100.00,SW,221,2.0,6.0,80,0.00,,,0.00,92.000000,,2013-02-21 18:42:00,
2013-02-21 12:11:00,22.0,16.0,-100.00,West,260,3.0,7.0,78,0.00,,,0.00,100.000000,,2013-02-21 19:11:00,
2013-02-21 12:21:00,22.0,16.0,-100.00,West,260,3.0,7.0,78,0.00,,,0.00,100.000000,,2013-02-21 19:21:00,
2013-02-21 12:31:00,22.0,16.0,-100.00,West,260,3.0,7.0,78,0.00,,,0.00,100.000000,,2013-02-21 19:31:00,
2013-02-21 12:41:00,22.0,16.0,-100.00,West,260,3.0,7.0,78,0.00,,,0.00,100.000000,,2013-02-21 19:41:00,
2013-02-21 13:11:00,23.0,16.0,-100.00,WSW,237,3.0,7.0,74,0.01,,,0.01,105.000000,,2013-02-21 20:11:00,
2013-02-21 13:21:00,23.0,16.0,-100.00,WSW,237,3.0,7.0,74,0.01,,,0.01,105.000000,,2013-02-21 20:21:00,
2013-02-21 13:31:00,23.0,16.0,-100.00,WSW,237,3.0,7.0,74,0.01,,,0.01,105.000000,,2013-02-21 20:31:00,
2013-02-21 13:41:00,23.0,16.0,-100.00,WSW,237,3.0,7.0,74,0.01,,,0.01,105.000000,,2013-02-21 20:41:00,
2013-02-21 14:11:00,23.0,17.0,-100.00,SW,214,4.0,8.0,76,0.02,,,0.03,103.000000,,2013-02-21 21:11:00,
2013-02-21 14:21:00,23.0,17.0,-100.00,SW,214,4.0,8.0,76,0.02,,,0.03,103.000000,,2013-02-21 21:21:00,
2013-02-21 14:31:00,23.0,17.0,-100.00,SW,214,4.0,8.0,76,0.02,,,0.03,103.000000,,2013-02-21 21:31:00,
2013-02-21 14:41:00,23.0,17.0,-100.00,SW,214,4.0,8.0,76,0.02,,,0.03,103.000000,,2013-02-21 21:41:00,
2013-02-21 15:11:00,22.0,15.0,-100.00,West,259,3.0,8.0,75,0.00,,,0.03,85.000000,,2013-02-21 22:11:00,
2013-02-21 15:21:00,22.0,15.0,-100.00,West,259,3.0,8.0,75,0.00,,,0.03,85.000000,,2013-02-21 22:21:00,
2013-02-21 15:31:00,22.0,15.0,-100.00,West,259,3.0,8.0,75,0.00,,,0.03,85.000000,,2013-02-21 22:31:00,
2013-02-21 15:41:00,22.0,15.0,-100.00,West,259,3.0,8.0,75,0.00,,,0.03,85.000000,,2013-02-21 22:41:00,
2013-02-21 16:11:00,23.0,15.0,-100.00,West,268,3.0,8.0,71,0.00,,,0.03,89.000000,,2013-02-21 23:11:00,
2013-02-21 16:21:00,23.0,15.0,-100.00,West,268,3.0,8.0,71,0.00,,,0.03,89.000000,,2013-02-21 23:21:00,
2013-02-21 16:31:00,23.0,15.0,-100.00,West,268,3.0,8.0,71,0.00,,,0.03,89.000000,,2013-02-21 23:31:00,
2013-02-21 16:41:00,23.0,15.0,-100.00,West,268,3.0,8.0,71,0.00,,,0.03,89.000000,,2013-02-21 23:41:00,
2013-02-21 17:11:00,21.0,14.0,-100.00,West,262,3.0,7.0,75,0.00,,,0.03,46.000000,,2013-02-22 00:11:00,
2013-02-21 17:21:00,21.0,14.0,-100.00,West,262,3.0,7.0,75,0.00,,,0.03,46.000000,,2013-02-22 00:21:00,
2013-02-21 17:31:00,21.0,14.0,-100.00,West,262,3.0,7.0,75,0.00,,,0.03,46.000000,,2013-02-22 00:31:00,
2013-02-21 17:41:00,21.0,14.0,-100.00,West,262,3.0,7.0,75,0.00,,,0.03,46.000000,,2013-02-22 00:41:00,
2013-02-21 18:11:00,18.0,13.0,-100.00,West,269,3.0,7.0,82,0.00,,,0.03,10.000000,,2013-02-22 01:11:00,
2013-02-21 18:21:00,18.0,13.0,-100.00,West,269,3.0,7.0,82,0.00,,,0.03,10.000000,,2013-02-22 01:21:00,
2013-02-21 18:32:00,18.0,13.0,-100.00,West,269,3.0,7.0,82,0.00,,,0.03,10.000000,,2013-02-22 01:32:00,
2013-02-21 18:42:00,18.0,13.0,-100.00,West,269,3.0,7.0,82,0.00,,,0.03,10.000000,,2013-02-22 01:42:00,
2013-02-21 19:11:00,15.0,12.0,-100.00,South,175,0.0,4.0,87,0.00,,,0.03,1.000000,,2013-02-22 02:11:00,
2013-02-21 19:21:00,15.0,12.0,-100.00,South,175,0.0,4.0,87,0.00,,,0.03,1.000000,,2013-02-22 02:21:00,
2013-02-21 19:31:00,15.0,12.0,-100.00,South,175,0.0,4.0,87,0.00,,,0.03,1.000000,,2013-02-22 02:31:00,
2013-02-21 19:42:00,15.0,12.0,-100.00,South,175,0.0,4.0,87,0.00,,,0.03,1.000000,,2013-02-22 02:42:00,
2013-02-21 20:11:00,15.0,12.0,-100.00,NE,49,0.0,0.0,88,0.00,,,0.03,0.000000,,2013-02-22 03:11:00,
2013-02-21 20:21:00,15.0,12.0,-100.00,NE,49,0.0,0.0,88,0.00,,,0.03,0.000000,,2013-02-22 03:21:00,
2013-02-21 20:31:00,15.0,12.0,-100.00,NE,49,0.0,0.0,88,0.00,,,0.03,0.000000,,2013-02-22 03:31:00,
2013-02-21 20:41:00,15.0,12.0,-100.00,NE,49,0.0,0.0,88,0.00,,,0.03,0.000000,,2013-02-22 03:41:00,
2013-02-21 21:11:00,16.0,13.0,-100.00,NNW,337,0.0,0.0,89,0.00,,,0.03,0.000000,,2013-02-22 04:11:00,
2013-02-21 21:21:00,16.0,13.0,-100.00,NNW,337,0.0,0.0,89,0.00,,,0.03,0.000000,,2013-02-22 04:21:00,
2013-02-21 21:32:00,16.0,13.0,-100.00,NNW,337,0.0,0.0,89,0.00,,,0.03,0.000000,,2013-02-22 04:32:00,
2013-02-21 21:42:00,16.0,13.0,-100.00,NNW,337,0.0,0.0,89,0.00,,,0.03,0.000000,,2013-02-22 04:42:00,
2013-02-21 22:12:00,16.0,14.0,-100.00,SSE,157,0.0,2.0,90,0.00,,,0.03,0.000000,,2013-02-22 05:12:00,
2013-02-21 22:22:00,16.0,14.0,-100.00,SSE,157,0.0,2.0,90,0.00,,,0.03,0.000000,,2013-02-22 05:22:00,
2013-02-21 22:32:00,16.0,14.0,-100.00,SSE,157,0.0,2.0,90,0.00,,,0.03,0.000000,,2013-02-22 05:32:00,
2013-02-21 22:41:00,16.0,14.0,-100.00,SSE,157,0.0,2.0,90,0.00,,,0.03,0.000000,,2013-02-22 05:41:00,
2013-02-21 23:11:00,15.0,12.0,-100.00,NNW,329,0.0,2.0,89,0.00,,,0.03,0.000000,,2013-02-22 06:11:00,
2013-02-21 23:21:00,15.0,12.0,-100.00,NNW,329,0.0,2.0,89,0.00,,,0.03,0.000000,,2013-02-22 06:21:00,
2013-02-21 23:31:00,15.0,12.0,-100.00,NNW,329,0.0,2.0,89,0.00,,,0.03,0.000000,,2013-02-22 06:31:00,
2013-02-21 23:42:00,15.0,12.0,-100.00,NNW,329,0.0,2.0,89,0.00,,,0.03,0.000000,,2013-02-22 06:42:00,